Regional Weather Roundup
Issued by NWS

Home | Current Version | Previous Version | Graphics & Text | Print | Product List | Glossary On
Versions: 1 2 3 4 5 6 7 8 9 10 11 12 13 14 15 16 17 18 19 20 21 22 23 24 25 26 27 28 29 30 31 32 33 34 35 36 37 38 39 40 41 42 43 44 45 46 47 48 49 50
000
ASUS43 KDTX 162301
RWRMI
MICHIGAN HOURLY REGIONAL WEATHER ROUNDUP
NATIONAL WEATHER SERVICE DETROIT/PONTIAC MI
700 PM EDT MON OCT 16 2017

NOTE: "FAIR" INDICATES FEW OR NO CLOUDS BELOW 12,000 FEET WITH NO
SIGNIFICANT WEATHER AND/OR OBSTRUCTION TO VISIBILITY.

MIZ047>049-052>055-059>063-066>070-074>076-081>083-170000-
SOUTHEAST LOWER MICHIGAN

CITY           SKY/WX    TMP DP  RH WIND       PRES   REMARKS
ADRIAN         MOCLDY    53  39  59 CALM      30.26S
ALMA           CLEAR     51  38  60 SW9       30.22S
ANN ARBOR      MOCLDY    47  42  83 CALM      30.25S
BAD AXE        CLEAR     47  36  67 S3        30.23S
CARO           CLEAR     47  38  72 CALM      30.22S
DETROIT CITY   CLOUDY    53  36  52 CALM      30.26R
DETROIT        MOCLDY    54  36  50 SW6       30.27R
FLINT          MOCLDY    50  37  61 S3        30.24S
GROSSE ILE     PTCLDY    51  39  62 CALM      30.26R
HILLSDALE      PTCLDY    52  37  58 W3        30.25S
HOWELL         PTCLDY    51  39  63 CALM      30.24S

CITY           SKY/WX    TMP DP  RH WIND       PRES   REMARKS
JACKSON        CLEAR     51  38  60 SW3       30.25R
LAMBERTVILLE   CLEAR     53  41  65 CALM      30.26R
LANSING        CLEAR     53  38  56 W6        30.24S
LAPEER         FAIR      47  39  74 CALM      30.24S
MASON          CLEAR     53  40  59 CALM      30.24S
MONROE         PTCLDY    51  39  63 CALM      30.26R
MT. CLEMENS    PTCLDY    46  39  75 S5        30.24S
PONTIAC        PTCLDY    51  36  56 SW3       30.24R
PORT HOPE        N/A     47  37  68 S3        30.21F
PORT HURON     CLEAR     45  37  76 S3        30.26R
TRI CITIES     PTCLDY    53  41  63 S6        30.22F
MIDLAND        FAIR      50  40  68 CALM      30.20S
TROY           CLEAR     53  33  46 CALM      30.27S
SAGINAW HB     PTCLDY    50  37  62 S5        30.22S
$$
MIZ043>046-050>051-056>058-064>065-071>073-077>080-170000-
SOUTHWEST LOWER MICHIGAN

CITY           SKY/WX    TMP DP  RH WIND       PRES   REMARKS
BATTLE CREEK   CLEAR     52  38  58 W5        30.25S
BENTON HARBOR  CLEAR     55  38  52 S3        30.24S
BIG RAPIDS     CLEAR     49  36  61 W3        30.20F
COLDWATER      CLEAR     52  37  56 CALM      30.25S
FREMONT        FAIR      50  38  64 SW3       30.21F
HOLLAND        CLEAR     53  40  61 S5        30.24S
GRAND RAPIDS   PTCLDY    52  39  61 SW10      30.23S
IONIA          FAIR      51  37  60 W7        30.23R
KALAMAZOO      CLEAR     54  34  47 W3        30.25F
LUDINGTON      CLEAR     51  39  63 S6        30.18F
MARSHALL       CLEAR     50  38  62 SW3       30.24S
MOUNT PLEASANT CLEAR     53  40  60 CALM      30.21R
MUSKEGON       PTCLDY    52  39  61 S6        30.22F
SOUTH HAVEN    CLEAR     54  42  64 CALM      30.24S
$$
MIZ016>042-170000-
NORTHERN LOWER MICHIGAN

CITY           SKY/WX    TMP DP  RH WIND       PRES   REMARKS
ALPENA         CLEAR     50  40  68 S5        30.17S
BEAVER ISLAND  CLOUDY    53  40  61 SW9G18    30.12S
BELLAIRE       CLEAR     50  38  63 CALM      30.17S
CADILLAC       CLEAR     49  34  56 SW6       30.18S
CHARLEVOIX     PTCLDY    51  40  65 SW7       30.17F
FRANKFORT      MOCLDY    54  40  59 SW6       30.17S
GAYLORD        CLEAR     47  34  60 SW8       30.16R
GRAYLING       CLEAR     48  34  57 SW5       30.18S
HARBOR SPRINGS PTCLDY    51  38  61 SW8G17    30.14F
HOUGHTON LAKE  CLEAR     51  35  54 SW10      30.19R
MANISTEE       CLEAR     51  39  63 S3        30.18F
OSCODA         CLEAR     49  38  64 S3        30.19S
PELLSTON       CLEAR     50  40  68 S5        30.14F
ROGERS CITY    PTCLDY    46  42  85 CALM      30.16S
TRAVERSE CITY  MOCLDY    52  38  58 SW5       30.16F
$$
MIZ007>008-015-170000-
EASTERN UPPER MICHIGAN

CITY           SKY/WX    TMP DP  RH WIND       PRES   REMARKS
KINROSS        MOCLDY    49  39  68 VRB5      30.10F
MACKINAC ISLAN CLOUDY    53  38  58 SW10G18   30.11F
NEWBERRY       CLOUDY    49  40  71 S8        30.08F
S. S. MARIE    MOCLDY    51  38  60 SW12      30.08F
MUNISING         N/A     51  40  65 S5        30.05F
$$
MIZ004>006-011>014-085-170000-
CENTRAL UPPER MICHIGAN

CITY           SKY/WX    TMP DP  RH WIND       PRES   REMARKS
MANISTIQUE     CLOUDY    52  35  53 SW7G17    30.09F
ESCANABA       PTCLDY    54  40  59 SW7       30.08F
MENOMINEE      CLOUDY    53  38  56 SW7       30.11F
SAWYER-GWINN   CLEAR     50  37  62 S6        30.05F
$$
MIZ001>003-009>011-084-170000-
WESTERN UPPER MICHIGAN

CITY           SKY/WX    TMP DP  RH WIND       PRES   REMARKS
IRON MOUNTAIN  PTCLDY    54  34  46 SW9       30.05F
HOUGHTON       CLEAR     51  36  56 S3        29.98F
COPPER HARBOR    N/A     52  35  52 VRB3      29.98F
IRONWOOD       CLOUDY    55  33  43 S8        30.00F
$$

ABBREVIATIONS USED IN REMARKS
   TC - TEMPERATURE IN CELSIUS
  WCI - WIND CHILL INDEX
   HX - HEAT INDEX
  VSB - VISIBILITY





USA.gov is the U.S. government's official web portal to all federal, state and local government web resources and services.